User: anonymous   Login
Location: Bosdarros
(43.2167°N, 0.3667°W)
Time: 09:31:47
(UTC+00:00)
Language:

FENGYUN 1C DEB - Orbit

View from above orbital plane
View from above orbital plane
View from above satellite
View from above satellite

Ground track
Ground track

The orbit data is extracted from the following two-line orbital elements,

1 36216U 99025DUR 21300.33022722  .00000201  00000-0  12232-3 0  9996
2 36216  98.7641 334.8618 0046961  25.1935 335.1515 14.16064962430211
Epoch (UTC): 27 October 2021 07:55:31
Eccentricity: 0.0046961
inclination: 98.7641°
perigee height: 805 km
apogee height: 872 km
right ascension of ascending node: 334.8618°
argument of perigee: 25.1935°
revolutions per day: 14.16064962
mean anomaly at epoch: 335.1515°
orbit number at epoch: 43021

The dashed part of the orbit path shows where the satellite is in the earth's shadow,  

DLR